Time,TemperatureF,DewpointF,PressureIn,WindDirection,WindDirectionDegrees,WindSpeedMPH,WindSpeedGustMPH,Humidity,HourlyPrecipIn,Conditions,Clouds,dailyrainin,SoftwareType,DateUTC
2013-02-24 00:00:00,32.8,32.0,29.90,NNW,340,1.0,5.0,95,0.05,,,0.32,weatherlink.com 1.10,2013-02-24 05:00:00,
2013-02-24 00:15:00,32.8,32.0,29.89,NW,315,2.0,7.0,95,0.04,,,0.01,weatherlink.com 1.10,2013-02-24 05:15:00,
2013-02-24 00:30:00,32.9,32.0,29.88,NW,316,1.0,4.0,95,0.04,,,0.02,weatherlink.com 1.10,2013-02-24 05:30:00,
2013-02-24 00:45:00,33.0,32.0,29.87,NW,320,2.0,7.0,95,0.04,,,0.03,weatherlink.com 1.10,2013-02-24 05:45:00,
2013-02-24 01:00:00,33.1,32.0,29.87,North,5,3.0,5.0,95,0.04,,,0.04,weatherlink.com 1.10,2013-02-24 06:00:00,
2013-02-24 01:15:00,33.2,32.0,29.87,North,1,3.0,5.0,95,0.04,,,0.05,weatherlink.com 1.10,2013-02-24 06:15:00,
2013-02-24 01:31:00,33.2,32.0,29.87,NW,323,3.0,5.0,95,0.05,,,0.07,weatherlink.com 1.10,2013-02-24 06:31:00,
2013-02-24 01:46:00,33.2,32.0,29.86,North,349,5.0,5.0,95,0.06,,,0.09,weatherlink.com 1.10,2013-02-24 06:46:00,
2013-02-24 02:01:00,33.3,32.0,29.85,NW,326,3.0,6.0,95,0.06,,,0.10,weatherlink.com 1.10,2013-02-24 07:01:00,
2013-02-24 02:16:00,33.2,32.0,29.83,NNW,342,7.0,8.0,96,0.07,,,0.12,weatherlink.com 1.10,2013-02-24 07:16:00,
2013-02-24 02:31:00,33.4,32.0,29.82,NW,315,6.0,9.0,96,0.06,,,0.13,weatherlink.com 1.10,2013-02-24 07:31:00,
2013-02-24 02:46:00,33.6,33.0,29.81,NNW,329,6.0,8.0,96,0.05,,,0.14,weatherlink.com 1.10,2013-02-24 07:46:00,
2013-02-24 03:01:00,33.5,33.0,29.79,NNW,340,3.0,11.0,96,0.05,,,0.15,weatherlink.com 1.10,2013-02-24 08:01:00,
2013-02-24 03:16:00,33.3,32.0,29.78,NW,317,8.0,8.0,96,0.04,,,0.16,weatherlink.com 1.10,2013-02-24 08:16:00,
2013-02-24 03:31:00,33.2,32.0,29.78,WNW,300,3.0,11.0,96,0.04,,,0.17,weatherlink.com 1.10,2013-02-24 08:31:00,
2013-02-24 03:46:00,33.2,32.0,29.78,NNE,13,4.0,12.0,96,0.04,,,0.18,weatherlink.com 1.10,2013-02-24 08:46:00,
2013-02-24 04:01:00,33.2,32.0,29.78,WNW,295,6.0,14.0,96,0.05,,,0.20,weatherlink.com 1.10,2013-02-24 09:01:00,
2013-02-24 04:16:00,33.3,32.0,29.77,NNE,13,9.0,13.0,96,0.05,,,0.21,weatherlink.com 1.10,2013-02-24 09:16:00,
2013-02-24 04:31:00,33.5,33.0,29.76,NNW,330,3.0,9.0,96,0.06,,,0.23,weatherlink.com 1.10,2013-02-24 09:31:00,
2013-02-24 04:46:00,33.5,33.0,29.75,NNW,333,6.0,9.0,96,0.07,,,0.25,weatherlink.com 1.10,2013-02-24 09:46:00,
2013-02-24 05:01:00,33.6,33.0,29.75,NNW,328,7.0,13.0,96,0.07,,,0.27,weatherlink.com 1.10,2013-02-24 10:01:00,
2013-02-24 05:16:00,33.8,33.0,29.75,NNW,346,4.0,10.0,96,0.08,,,0.29,weatherlink.com 1.10,2013-02-24 10:16:00,
2013-02-24 05:31:00,34.0,33.0,29.77,NW,317,4.0,11.0,96,0.07,,,0.30,weatherlink.com 1.10,2013-02-24 10:31:00,
2013-02-24 05:46:00,34.1,33.0,29.78,WNW,299,7.0,9.0,96,0.07,,,0.32,weatherlink.com 1.10,2013-02-24 10:46:00,
2013-02-24 06:01:00,34.2,33.0,29.78,NNW,339,5.0,11.0,96,0.06,,,0.34,weatherlink.com 1.10,2013-02-24 11:01:00,
2013-02-24 06:16:00,34.2,33.0,29.76,NW,311,5.0,10.0,96,0.06,,,0.35,weatherlink.com 1.10,2013-02-24 11:16:00,
2013-02-24 06:31:00,34.1,33.0,29.76,NNW,340,3.0,13.0,96,0.06,,,0.36,weatherlink.com 1.10,2013-02-24 11:31:00,
2013-02-24 06:46:00,34.1,33.0,29.77,NW,309,4.0,13.0,96,0.06,,,0.38,weatherlink.com 1.10,2013-02-24 11:46:00,
2013-02-24 07:01:00,34.2,33.0,29.77,NNE,12,12.0,13.0,96,0.05,,,0.39,weatherlink.com 1.10,2013-02-24 12:01:00,
2013-02-24 07:16:00,34.1,33.0,29.77,NW,314,7.0,13.0,96,0.05,,,0.40,weatherlink.com 1.10,2013-02-24 12:16:00,
2013-02-24 07:31:00,34.0,33.0,29.76,NW,326,6.0,14.0,96,0.06,,,0.42,weatherlink.com 1.10,2013-02-24 12:31:00,
2013-02-24 07:46:00,34.0,33.0,29.75,North,5,7.0,13.0,96,0.05,,,0.43,weatherlink.com 1.10,2013-02-24 12:46:00,
2013-02-24 08:01:00,33.7,33.0,29.75,NNW,337,9.0,14.0,96,0.05,,,0.44,weatherlink.com 1.10,2013-02-24 13:01:00,
2013-02-24 08:16:00,33.6,33.0,29.74,NNW,333,3.0,12.0,96,0.03,,,0.44,weatherlink.com 1.10,2013-02-24 13:16:00,
2013-02-24 08:31:00,33.6,33.0,29.73,NW,320,7.0,13.0,96,0.04,,,0.46,weatherlink.com 1.10,2013-02-24 13:31:00,
2013-02-24 08:46:00,33.5,33.0,29.73,NW,309,6.0,13.0,96,0.04,,,0.47,weatherlink.com 1.10,2013-02-24 13:46:00,
2013-02-24 09:01:00,33.6,33.0,29.73,NNE,13,6.0,13.0,96,0.03,,,0.47,weatherlink.com 1.10,2013-02-24 14:01:00,
2013-02-24 09:16:00,33.7,33.0,29.73,NW,326,6.0,15.0,96,0.04,,,0.48,weatherlink.com 1.10,2013-02-24 14:16:00,
2013-02-24 09:31:00,33.9,33.0,29.71,WNW,292,1.0,12.0,96,0.02,,,0.48,weatherlink.com 1.10,2013-02-24 14:31:00,
2013-02-24 09:46:00,34.0,33.0,29.72,NW,317,13.0,17.0,96,0.01,,,0.48,weatherlink.com 1.10,2013-02-24 14:46:00,
2013-02-24 10:01:00,34.0,33.0,29.71,NW,318,5.0,16.0,95,0.01,,,0.48,weatherlink.com 1.10,2013-02-24 15:01:00,
2013-02-24 10:17:00,34.1,33.0,29.71,NNW,333,5.0,17.0,95,0.01,,,0.49,weatherlink.com 1.10,2013-02-24 15:17:00,
2013-02-24 10:32:00,34.3,33.0,29.71,NNW,338,7.0,16.0,95,0.01,,,0.49,weatherlink.com 1.10,2013-02-24 15:32:00,
2013-02-24 10:47:00,34.2,33.0,29.71,WNW,302,9.0,17.0,95,0.01,,,0.49,weatherlink.com 1.10,2013-02-24 15:47:00,
2013-02-24 11:02:00,34.0,33.0,29.71,NW,323,5.0,15.0,95,0.01,,,0.49,weatherlink.com 1.10,2013-02-24 16:02:00,
2013-02-24 11:17:00,33.5,32.0,29.72,NNW,339,6.0,14.0,95,0.00,,,0.49,weatherlink.com 1.10,2013-02-24 16:17:00,
2013-02-24 11:32:00,33.1,32.0,29.72,NW,309,11.0,17.0,95,0.01,,,0.50,weatherlink.com 1.10,2013-02-24 16:32:00,
2013-02-24 11:47:00,33.0,32.0,29.71,NW,322,6.0,12.0,95,0.02,,,0.51,weatherlink.com 1.10,2013-02-24 16:47:00,
2013-02-24 12:02:00,33.1,32.0,29.71,NW,311,4.0,13.0,95,0.03,,,0.52,weatherlink.com 1.10,2013-02-24 17:02:00,
2013-02-24 12:19:00,33.2,32.0,29.71,NW,326,7.0,16.0,95,0.03,,,0.52,weatherlink.com 1.10,2013-02-24 17:19:00,
2013-02-24 12:32:00,33.1,32.0,29.70,NNW,345,4.0,15.0,95,0.03,,,0.53,weatherlink.com 1.10,2013-02-24 17:32:00,
2013-02-24 12:47:00,33.0,32.0,29.70,NW,321,10.0,19.0,95,0.02,,,0.53,weatherlink.com 1.10,2013-02-24 17:47:00,
2013-02-24 13:02:00,33.3,32.0,29.70,NW,315,9.0,14.0,95,0.01,,,0.53,weatherlink.com 1.10,2013-02-24 18:02:00,
2013-02-24 13:17:00,33.6,32.0,29.70,NW,313,10.0,15.0,94,0.01,,,0.53,weatherlink.com 1.10,2013-02-24 18:17:00,
2013-02-24 13:32:00,33.9,32.0,29.69,NW,304,5.0,16.0,94,0.00,,,0.53,weatherlink.com 1.10,2013-02-24 18:32:00,
2013-02-24 13:47:00,34.1,33.0,29.69,NW,321,9.0,18.0,94,0.00,,,0.53,weatherlink.com 1.10,2013-02-24 18:47:00,
2013-02-24 14:02:00,33.9,32.0,29.69,NW,317,6.0,11.0,94,0.00,,,0.53,weatherlink.com 1.10,2013-02-24 19:02:00,
2013-02-24 14:17:00,33.5,32.0,29.70,NNW,331,10.0,14.0,94,0.01,,,0.54,weatherlink.com 1.10,2013-02-24 19:17:00,
2013-02-24 14:32:00,33.4,32.0,29.70,NNW,339,9.0,13.0,94,0.01,,,0.54,weatherlink.com 1.10,2013-02-24 19:32:00,
2013-02-24 14:47:00,33.4,32.0,29.71,NNW,342,7.0,11.0,95,0.01,,,0.54,weatherlink.com 1.10,2013-02-24 19:47:00,
2013-02-24 15:02:00,33.4,32.0,29.72,NW,314,4.0,13.0,94,0.01,,,0.54,weatherlink.com 1.10,2013-02-24 20:02:00,
2013-02-24 15:17:00,33.1,32.0,29.73,WNW,290,2.0,10.0,95,0.00,,,0.54,weatherlink.com 1.10,2013-02-24 20:17:00,
2013-02-24 15:32:00,32.9,32.0,29.73,NW,324,3.0,12.0,95,0.00,,,0.54,weatherlink.com 1.10,2013-02-24 20:32:00,
2013-02-24 15:47:00,32.7,32.0,29.73,NW,318,6.0,12.0,95,0.01,,,0.55,weatherlink.com 1.10,2013-02-24 20:47:00,
2013-02-24 16:02:00,32.6,31.0,29.73,NW,326,8.0,10.0,95,0.01,,,0.55,weatherlink.com 1.10,2013-02-24 21:02:00,
2013-02-24 16:17:00,32.5,31.0,29.73,North,6,6.0,7.0,95,0.01,,,0.55,weatherlink.com 1.10,2013-02-24 21:17:00,
2013-02-24 16:32:00,32.6,32.0,29.74,NW,323,12.0,12.0,96,0.01,,,0.55,weatherlink.com 1.10,2013-02-24 21:32:00,
2013-02-24 16:47:00,32.4,31.0,29.75,WNW,298,6.0,9.0,96,0.00,,,0.55,weatherlink.com 1.10,2013-02-24 21:47:00,
2013-02-24 17:02:00,32.3,31.0,29.76,NNW,328,5.0,9.0,96,0.00,,,0.55,weatherlink.com 1.10,2013-02-24 22:02:00,
2013-02-24 17:17:00,32.2,31.0,29.76,NNW,333,3.0,12.0,96,0.00,,,0.55,weatherlink.com 1.10,2013-02-24 22:17:00,
2013-02-24 17:32:00,32.1,31.0,29.76,NW,318,3.0,11.0,96,0.00,,,0.55,weatherlink.com 1.10,2013-02-24 22:32:00,
2013-02-24 17:47:00,32.0,31.0,29.77,North,352,4.0,13.0,96,0.00,,,0.55,weatherlink.com 1.10,2013-02-24 22:47:00,
2013-02-24 18:02:00,31.9,31.0,29.78,NW,321,5.0,12.0,96,0.00,,,0.55,weatherlink.com 1.10,2013-02-24 23:02:00,
2013-02-24 18:17:00,31.8,31.0,29.79,NW,316,5.0,9.0,96,0.00,,,0.55,weatherlink.com 1.10,2013-02-24 23:17:00,
2013-02-24 18:32:00,31.8,31.0,29.80,NW,312,4.0,11.0,96,0.00,,,0.55,weatherlink.com 1.10,2013-02-24 23:32:00,
2013-02-24 18:47:00,31.8,31.0,29.80,NNW,339,9.0,9.0,96,0.00,,,0.55,weatherlink.com 1.10,2013-02-24 23:47:00,
2013-02-24 19:02:00,31.7,31.0,29.81,NW,309,4.0,10.0,96,0.00,,,0.55,weatherlink.com 1.10,2013-02-25 00:02:00,
2013-02-24 19:17:00,31.6,31.0,29.82,NW,314,3.0,7.0,96,0.00,,,0.55,weatherlink.com 1.10,2013-02-25 00:17:00,
2013-02-24 19:32:00,31.6,31.0,29.83,WNW,302,2.0,10.0,96,0.00,,,0.55,weatherlink.com 1.10,2013-02-25 00:32:00,
2013-02-24 19:47:00,31.6,31.0,29.83,NW,305,4.0,8.0,96,0.00,,,0.55,weatherlink.com 1.10,2013-02-25 00:47:00,
2013-02-24 20:04:00,31.6,31.0,29.84,NW,323,4.0,8.0,96,0.00,,,0.55,weatherlink.com 1.10,2013-02-25 01:04:00,
2013-02-24 20:17:00,31.4,30.0,29.85,NNW,333,10.0,12.0,96,0.00,,,0.55,weatherlink.com 1.10,2013-02-25 01:17:00,
2013-02-24 20:32:00,31.2,30.0,29.85,West,281,4.0,9.0,96,0.00,,,0.55,weatherlink.com 1.10,2013-02-25 01:32:00,
2013-02-24 20:47:00,31.2,30.0,29.86,NNW,330,3.0,9.0,96,0.00,,,0.55,weatherlink.com 1.10,2013-02-25 01:47:00,
2013-02-24 21:02:00,31.2,30.0,29.86,NW,326,3.0,7.0,96,0.00,,,0.55,weatherlink.com 1.10,2013-02-25 02:02:00,
2013-02-24 21:17:00,30.9,30.0,29.87,NNW,333,5.0,10.0,96,0.00,,,0.55,weatherlink.com 1.10,2013-02-25 02:17:00,
2013-02-24 21:32:00,30.7,30.0,29.88,NW,320,6.0,12.0,96,0.00,,,0.55,weatherlink.com 1.10,2013-02-25 02:32:00,
2013-02-24 21:47:00,30.5,30.0,29.88,West,281,1.0,7.0,96,0.00,,,0.55,weatherlink.com 1.10,2013-02-25 02:47:00,
2013-02-24 22:02:00,30.5,30.0,29.89,NW,311,1.0,7.0,96,0.00,,,0.55,weatherlink.com 1.10,2013-02-25 03:02:00,
2013-02-24 22:17:00,30.5,30.0,29.89,NW,316,2.0,5.0,96,0.00,,,0.55,weatherlink.com 1.10,2013-02-25 03:17:00,
2013-02-24 22:32:00,30.5,30.0,29.89,NW,321,3.0,6.0,96,0.00,,,0.55,weatherlink.com 1.10,2013-02-25 03:32:00,
2013-02-24 22:47:00,30.5,30.0,29.89,NW,323,2.0,3.0,96,0.00,,,0.55,weatherlink.com 1.10,2013-02-25 03:47:00,
2013-02-24 23:02:00,30.5,30.0,29.89,NW,304,1.0,3.0,96,0.00,,,0.55,weatherlink.com 1.10,2013-02-25 04:02:00,
2013-02-24 23:17:00,30.5,30.0,29.89,NNW,333,1.0,3.0,96,0.00,,,0.55,weatherlink.com 1.10,2013-02-25 04:17:00,
2013-02-24 23:32:00,30.5,30.0,29.89,WNW,291,2.0,3.0,96,0.00,,,0.55,weatherlink.com 1.10,2013-02-25 04:32:00,